Regional Weather Roundup
Issued by NWS

Home | Current Version | Previous Version | Text Only | Print | Product List | Glossary On
Versions: 1 2 3 4 5 6 7 8 9 10 11 12 13 14 15 16 17 18 19 20 21 22 23 24 25 26 27 28 29 30 31 32 33 34 35 36 37 38 39 40 41 42 43 44 45 46 47 48 49 50
000
ASUS43 KLSX 060707
RWRMO

WEATHER SUMMARY FOR MISSOURI
NATIONAL WEATHER SERVICE SPRINGFIELD MO
200 AM CDT MON JUL 06 2015

NOTE: "FAIR" INDICATES FEW OR NO CLOUDS BELOW 12,000 FEET WITH NO
       SIGNIFICANT WEATHER AND/OR OBSTRUCTIONS TO VISIBILITY.
       CURRENT SKY AND/OR WEATHER CONDITIONS ARE NOT AVAILABLE FOR
       CHILLICOTHE AND FARMINGTON.

MOZ001>031-035>038-043-044-053-054-060800-
...NORTHERN AND WESTERN MISSOURI...

CITY           SKY/WX    TMP DP  RH WIND       PRES   REMARKS
KANSAS CTY INT CLOUDY    78  69  73 S13       29.91R
KANSAS C DTWN  CLOUDY    77  69  76 S10       29.91R
LEE`S SUMMIT   MOCLDY    74  66  76 S9        29.94R
ST JOSEPH      CLOUDY    81  71  71 S12       29.88R
CHILLICOTHE      N/A     77  68  73 S7        29.93S
KIRKSVILLE     CLEAR     74  69  85 S10       29.94F

$$
MOZ066>068-077>081-088>096-101>105-060800-
...SOUTHWEST MISSOURI...

CITY           SKY/WX    TMP DP  RH WIND       PRES   REMARKS
SPRINGFIELD    CLEAR     71  68  90 S10       30.00S
JOPLIN         MOCLDY    74  68  81 S14       29.96F

$$
MOZ032>034-039>042-045>050-055>058-069>072-060800-
...CENTRAL MISSOURI...

CITY           SKY/WX    TMP DP  RH WIND       PRES   REMARKS
COLUMBIA       CLEAR     74  71  91 S8        29.97S
JEFFERSON CITY CLEAR     75  71  87 SE6       29.96S
ROLLA          CLEAR     72  71  97 S10       29.99S
SEDALIA        PTCLDY    74  67  78 S10       29.96S
WHITEMAN AFB   MOCLDY    72  67  84 S10       29.94R
WARRENSBURG    MOCLDY    73  66  78 S8        29.94R
OSAGE BEACH    CLEAR     73  70  88 SE5       29.98S

$$
MOZ051-052-059>065-060800-
...EAST CENTRAL MISSOURI...

CITY           SKY/WX    TMP DP  RH WIND       PRES   REMARKS
ST LOUIS INTL  PTCLDY    77  68  73 S6        30.01R
SPIRIT OF STL  CLEAR     74  70  87 S5        29.98S
ST CHARLES     PTCLDY    73  69  87 CALM      29.99S FOG

$$
MOZ072>076-082>087-097>100-106>115-060800-
...SOUTH CENTRAL AND SOUTHEAST MISSOURI...

CITY           SKY/WX    TMP DP  RH WIND       PRES   REMARKS
CAPE GIRARDEAU CLEAR     74  72  93 SW8       30.02R
FARMINGTON     CLOUDY    72  70  94 SE5       30.06S
POPLAR BLUFF   MOCLDY    75  72  90 S6        30.01S
WEST PLAINS    MOCLDY    73  70  90 SW5       30.04S

$$



USA.gov is the U.S. government's official web portal to all federal, state and local government web resources and services.